Temperature
18 18 18 17 17 17 17 17 17 17 17 17 17 17 16 16 16 16 16 16 16 16 16 16 16 16 16 16 16 16 16 15 15 15 14 14 14 14 14 13 13 13 13
18 18 18 17 17 17 17 17 17 17 17 17 16 16 16 16 16 16 16 16 16 16 16 16 16 16 16 16 15 15 15 15 15 14 14 13 13 13 13 13 12 12 12
18 18 18 17 17 17 17 17 17 16 16 16 16 16 16 16 16 16 16 16 16 16 16 15 15 15 15 15 15 15 15 14 14 14 14 13 13 12 12 12 11 11 11
18 17 17 17 17 17 17 17 16 16 16 16 16 16 16 16 15 15 15 15 15 15 15 15 15 15 15 15 14 14 14 14 14 14 13 12 12 12 11 11 11 10 10
18 17 17 17 17 17 17 16 16 16 16 16 16 16 15 15 15 15 15 15 15 15 15 15 14 14 14 14 14 14 14 14 13 13 13 12 11 11 11 11 10 10 9
17 17 17 17 16 16 16 16 16 16 16 15 15 15 15 15 15 15 15 15 15 14 14 14 14 14 14 14 14 14 13 13 13 12 12 12 11 11 10 10 10 9 9
17 17 16 16 16 16 16 16 16 15 15 15 15 15 15 15 15 15 15 14 14 14 14 14 13 13 13 13 13 13 13 12 12 12 11 11 11 10 10 9 9 9 8
17 16 16 16 16 16 16 15 15 15 15 15 15 15 15 15 14 14 14 14 14 13 13 13 13 13 13 12 12 12 12 12 11 11 11 10 10 10 9 9 9 8 8
17 16 16 16 16 15 15 15 15 15 15 15 15 14 14 14 14 13 13 13 13 13 12 12 12 12 12 12 12 11 11 11 11 10 10 10 10 9 9 9 8 9 8
16 16 16 15 15 15 15 15 15 15 14 14 14 14 14 14 13 13 13 13 12 12 12 12 11 11 11 11 11 11 10 10 10 9 9 9 9 8 8 8 8 8 8
16 16 16 15 15 15 15 15 14 14 14 14 14 13 13 13 13 12 12 12 12 12 11 11 11 11 11 10 10 10 10 9 9 9 8 8 8 8 7 7 7 7 7
16 16 15 15 15 15 14 14 14 14 13 13 13 13 12 12 12 12 12 12 11 11 11 10 10 10 10 10 10 9 9 9 8 8 8 8 7 7 7 6 6 6 6
16 15 15 15 14 14 14 14 13 13 13 12 12 12 12 12 11 11 11 11 11 10 10 10 9 9 9 9 9 8 8 8 8 8 7 7 6 6 6 6 6 6 6
15 15 14 14 14 13 13 13 13 12 12 12 12 12 11 11 11 10 10 10 10 10 9 9 8 8 8 8 8 7 7 7 7 7 7 6 6 6 6 6 6 6 6
14 14 14 13 13 13 12 12 12 12 12 12 12 11 11 11 11 10 10 10 9 9 9 8 8 7 7 7 7 7 7 7 7 6 6 6 6 6 6 6 5 6 6
14 13 13 13 12 12 12 12 11 11 11 11 11 11 11 10 10 10 9 9 9 8 8 8 8 7 7 7 7 7 6 6 6 6 6 6 6 6 6 5 5 6 6
13 13 12 12 12 12 11 11 11 10 10 10 10 10 10 10 9 9 9 8 8 8 8 7 7 7 7 7 7 7 6 6 6 6 6 6 6 5 6 5 5 5 6
12 12 12 12 11 11 11 11 10 10 10 9 9 9 9 9 8 8 8 7 7 7 7 7 7 7 7 7 7 6 6 6 6 6 5 5 5 5 5 5 5 5 5
12 12 11 11 11 11 10 10 10 9 9 9 8 8 8 8 7 7 7 7 7 7 7 7 7 7 6 6 6 6 6 6 5 5 5 5 5 5 5 5 5 5 5
11 11 11 11 10 10 10 9 9 9 9 8 8 8 7 7 7 7 7 7 7 7 7 7 6 6 6 6 5 5 5 5 5 5 5 5 5 5 5 5 5 5 5
11 11 10 10 10 10 10 9 9 9 8 8 8 7 7 7 7 7 7 7 7 7 6 6 6 6 6 5 5 5 5 5 5 5 5 5 5 5 5 5 5 5 5
10 10 10 10 10 9 9 9 9 8 8 8 7 7 7 7 7 7 6 6 6 6 6 6 6 6 6 6 5 5 5 5 5 5 5 5 4 5 5 5 5 5 5
10 10 9 9 9 9 9 8 8 8 8 8 7 7 7 7 7 7 7 7 6 6 6 6 6 6 6 5 5 5 5 5 5 5 4 4 4 4 4 4 4 5 5
10 9 9 9 9 8 8 8 8 8 8 7 7 7 7 7 7 6 6 6 6 6 6 6 6 6 5 5 5 5 5 5 5 4 4 4 4 4 4 4 4 5 5
9 9 9 9 8 8 8 8 8 8 7 7 7 7 7 7 7 7 6 6 6 6 6 6 6 5 5 5 5 5 5 5 5 4 4 4 4 4 4 4 4 4 4
9 9 9 8 8 8 8 8 8 7 7 7 7 7 7 7 7 7 6 6 6 6 6 6 6 5 5 5 5 5 5 5 5 4 4 4 4 4 4 4 4 4 4
Wind_Speed
6 6 5 5 5 5 4 4 4 4 4 4 5 5 5 6 6 5 5 5 5 5 5 5 5 5 4 4 4 4 4 4 3 2 2 3 4 5 8 9 10 10 13
6 5 5 4 4 4 4 4 3 3 4 4 4 4 5 5 5 6 5 4 5 5 4 4 4 3 4 4 4 4 4 4 4 5 4 4 4 5 7 7 8 10 12
6 5 5 4 4 3 3 3 3 3 3 3 4 4 5 5 4 4 4 3 3 3 3 3 3 3 3 3 3 3 3 4 4 5 5 4 4 5 6 7 8 8 10
6 5 5 4 4 3 3 3 3 3 3 3 3 3 4 4 3 4 4 3 3 2 1 1 2 2 2 3 3 3 3 4 5 6 6 6 5 5 5 6 6 6 6
6 6 5 4 4 4 3 3 3 2 2 2 2 2 2 2 2 3 4 4 3 3 2 2 2 3 4 2 1 3 4 4 5 6 6 6 5 5 5 4 6 6 5
7 6 5 5 5 4 4 4 4 3 2 3 2 2 2 1 4 3 2 3 3 3 3 4 4 5 7 9 9 8 5 4 5 5 5 6 6 5 5 5 5 5 4
7 6 6 6 5 5 5 5 4 3 3 3 3 3 3 4 6 5 4 4 4 4 4 4 4 5 6 7 9 11 11 11 7 4 6 6 6 6 6 6 5 4 4
7 6 6 6 6 5 5 5 4 4 4 4 4 4 4 6 7 7 7 6 6 6 5 5 6 6 5 6 9 9 9 8 7 6 6 5 5 5 5 6 7 6 5
7 6 6 6 6 6 5 5 4 4 4 4 4 5 5 6 7 7 6 7 7 7 6 6 6 7 7 8 10 10 10 9 13 14 12 11 10 8 5 5 6 5 4
7 7 6 6 6 6 5 5 4 5 5 5 5 5 6 6 6 5 4 6 7 7 7 7 9 8 7 7 9 10 10 8 9 10 10 10 10 9 7 3 3 4 3
7 7 6 6 6 6 6 5 5 5 6 6 6 6 6 6 6 5 3 5 7 7 7 6 7 9 9 8 7 8 8 8 8 9 8 7 7 6 6 6 5 3 3
6 7 7 6 6 6 6 6 6 6 7 6 6 6 6 6 6 6 6 6 6 8 7 7 8 11 11 10 9 9 6 5 7 7 7 7 7 7 7 8 8 7 6
7 7 6 6 6 6 6 6 6 5 5 5 5 6 6 6 7 9 10 9 8 8 9 12 12 12 12 11 10 6 5 6 7 7 7 7 7 7 7 6 7 6 6
8 7 6 6 7 6 4 4 4 4 5 5 5 6 6 6 6 7 7 9 11 11 11 13 12 10 9 9 8 5 5 6 6 7 7 7 6 6 5 4 4 3 4
7 7 7 7 7 6 5 4 3 3 2 3 4 5 6 6 6 6 6 7 8 9 10 9 8 7 7 7 6 6 6 6 6 6 6 6 6 5 4 4 2 2 2
7 7 6 6 6 6 7 7 11 8 10 9 7 5 6 9 11 11 10 9 10 9 8 8 8 7 6 6 6 6 5 5 5 5 5 5 5 4 4 3 2 2 2
7 6 6 6 7 7 7 7 6 7 11 11 9 9 10 12 12 12 12 11 8 7 6 7 7 7 6 6 6 6 6 5 5 5 5 4 4 3 3 3 2 1 1
7 7 6 6 6 6 6 6 6 7 6 5 7 9 11 11 12 12 12 11 7 5 6 6 6 6 6 6 5 5 6 6 5 4 4 4 3 3 2 2 1 1 0
6 6 6 6 6 6 6 6 6 7 7 7 7 7 8 10 10 9 9 7 7 7 6 6 6 6 5 5 5 5 5 5 4 4 4 3 3 2 2 2 2 2 3
6 7 6 6 7 7 6 7 7 7 7 7 7 8 8 8 7 7 6 5 6 6 6 6 5 5 5 5 4 4 4 4 5 4 3 3 2 2 2 2 2 2 2
6 7 7 6 6 6 6 6 6 7 7 7 7 7 7 8 7 8 7 6 6 6 6 6 6 6 5 5 5 5 5 4 4 3 3 3 3 3 3 2 3 3 3
6 6 6 6 6 6 6 6 6 6 7 7 7 7 6 6 6 7 7 7 6 5 5 5 5 5 5 5 5 5 5 5 5 4 4 4 4 3 3 3 3 3 3
6 7 6 6 6 7 6 6 6 6 7 7 7 7 7 6 6 6 6 6 6 6 6 6 5 5 6 6 6 6 5 5 5 4 4 4 4 4 4 4 4 5 5
7 7 7 7 6 6 6 6 6 6 7 7 7 7 7 6 6 6 6 5 6 6 6 6 6 6 7 7 6 7 6 5 5 6 6 5 5 5 5 5 6 6 6
6 6 6 6 6 6 6 6 6 6 6 6 7 7 7 7 7 7 6 6 6 6 6 7 6 7 9 9 8 7 6 6 5 5 7 7 6 6 6 6 6 7 7
6 6 5 5 5 5 6 6 6 6 6 6 6 6 6 7 7 7 7 6 6 6 7 7 8 8 9 10 9 8 9 10 9 8 8 8 7 7 7 7 8 8 8
Wind_Direction
178 184 189 194 195 198 205 212 212 217 215 217 219 222 223 223 222 223 227 229 228 233 238 237 239 250 248 246 239 236 228 216 201 183 128 110 105 104 101 104 104 100 94
167 168 168 172 180 186 193 198 198 201 209 210 210 217 225 224 219 218 223 225 225 227 229 228 235 233 233 245 237 227 217 198 189 177 156 139 121 119 112 109 106 101 99
154 155 155 160 165 175 180 180 182 191 204 207 205 213 223 225 217 213 214 211 213 213 214 217 228 223 228 228 224 220 214 193 173 167 156 137 126 125 119 109 98 96 100
148 150 152 158 160 165 168 169 176 187 199 205 206 209 216 214 210 200 189 184 179 175 180 203 225 213 217 214 209 200 182 169 159 156 150 146 137 134 136 126 114 100 96
155 156 153 152 151 152 153 157 160 173 183 179 176 178 192 196 190 177 174 169 155 141 123 107 90 87 71 69 138 160 164 166 160 157 154 149 145 149 146 139 129 121 100
157 155 154 155 153 152 150 146 145 146 142 136 134 137 143 140 98 112 154 149 143 133 121 103 98 93 91 84 78 76 87 144 161 157 153 151 146 144 139 142 141 141 129
156 156 158 157 151 146 146 143 141 137 127 121 114 110 103 89 91 100 106 125 122 121 118 112 102 98 104 105 95 87 76 73 83 124 139 145 147 151 152 152 146 134 118
154 156 158 156 150 149 149 143 139 137 127 116 106 101 101 94 92 99 105 109 106 106 108 113 113 107 104 112 108 97 85 75 80 95 114 121 128 139 150 147 138 129 116
156 158 160 157 150 150 148 143 139 133 121 113 106 105 103 97 89 97 105 109 103 95 91 93 104 107 100 110 115 111 105 95 84 89 93 98 98 98 111 140 149 146 126
159 159 158 155 153 150 145 140 133 128 121 112 99 96 100 102 92 94 116 120 113 106 94 89 83 89 94 105 122 122 118 115 114 110 108 112 111 108 103 112 142 146 128
157 154 152 152 148 144 140 137 135 130 121 116 109 102 99 102 102 85 72 125 126 120 113 105 94 89 87 79 94 111 118 124 123 121 120 118 114 108 99 84 63 62 84
152 149 147 147 144 140 138 136 134 134 133 129 122 115 107 103 96 90 74 79 102 117 114 111 105 99 89 81 90 97 112 130 119 116 112 109 105 98 89 82 74 70 62
147 144 142 139 133 136 143 143 145 147 146 142 140 134 123 113 98 88 87 84 85 102 104 102 110 112 108 97 95 103 129 120 117 115 109 102 98 98 106 109 106 105 98
148 144 144 140 135 131 131 141 149 153 156 152 151 144 137 133 130 127 119 113 110 110 113 115 113 107 104 106 119 117 103 97 107 110 110 111 115 119 114 108 109 111 105
147 147 149 143 134 123 108 82 100 81 113 156 155 149 151 150 129 116 135 136 135 130 132 132 131 129 124 122 117 111 113 117 113 115 121 123 122 119 112 105 96 99 93
151 154 151 144 137 133 126 102 57 63 63 63 68 100 103 107 117 113 107 108 117 139 143 137 136 134 132 130 129 128 127 124 124 125 125 123 123 123 121 122 119 96 88
153 152 149 145 144 145 144 138 124 86 68 64 72 86 106 120 121 122 123 124 135 158 145 135 136 137 136 136 137 135 130 123 127 133 132 132 134 136 136 133 126 116 88
153 144 147 147 146 144 145 143 140 137 128 105 85 96 114 123 127 131 137 140 146 166 144 138 141 143 142 140 140 136 133 137 143 142 143 147 150 152 153 155 141 89 354
146 144 140 139 141 141 140 139 137 136 132 129 126 117 121 129 132 143 162 162 153 152 147 143 143 144 141 140 139 140 143 144 143 153 151 155 163 174 175 184 168 162 255
131 126 136 140 144 144 144 146 145 143 139 140 145 146 149 153 151 157 170 165 155 152 153 152 147 145 145 147 151 156 158 158 164 178 164 171 180 194 195 214 229 232 251
130 132 139 141 143 146 148 148 145 145 148 151 153 153 163 164 161 164 168 171 169 166 164 161 159 163 161 165 167 173 181 180 184 186 179 190 200 207 222 229 231 249 263
135 140 145 139 136 137 139 142 144 148 153 152 149 153 177 181 167 169 174 177 176 171 167 172 176 174 173 176 179 185 189 189 189 194 198 203 208 215 226 237 245 256 264
134 137 136 133 132 136 142 146 148 153 155 156 157 160 170 177 176 176 178 177 176 177 178 185 189 183 180 184 189 195 205 201 196 200 208 211 216 222 230 237 246 258 266
138 138 137 139 143 148 148 150 154 158 160 161 164 168 171 174 180 180 182 181 183 186 188 192 197 195 191 192 195 199 202 201 203 201 213 224 227 234 238 243 253 263 269
139 139 142 146 148 151 155 159 161 162 165 170 172 175 177 181 184 184 186 187 190 194 198 202 205 205 200 201 205 201 165 171 209 222 208 223 233 241 249 253 258 266 269
136 138 138 139 145 154 158 161 165 169 175 178 179 181 185 190 194 193 195 198 200 198 204 207 208 208 206 207 204 190 177 189 205 224 233 233 236 242 248 254 260 262 266
Height
1530 1532 1533 1534 1536 1537 1538 1540 1541 1542 1543 1544 1545 1546 1547 1548 1549 1550 1551 1553 1554 1555 1555 1556 1557 1558 1559 1559 1560 1561 1562 1563 1564 1564 1565 1566 1568 1569 1569 1570 1571 1571 1571
1529 1530 1532 1533 1534 1535 1537 1538 1539 1540 1540 1541 1542 1543 1544 1545 1546 1547 1548 1549 1550 1551 1552 1553 1553 1554 1554 1555 1556 1556 1557 1559 1560 1561 1562 1563 1565 1566 1567 1568 1569 1570 1570
1528 1530 1531 1532 1533 1534 1535 1536 1537 1537 1538 1539 1540 1540 1541 1542 1543 1544 1545 1546 1547 1548 1548 1549 1550 1550 1550 1551 1552 1553 1554 1555 1557 1558 1559 1561 1562 1564 1565 1566 1567 1568 1568
1528 1529 1530 1531 1532 1533 1533 1534 1535 1536 1536 1537 1537 1538 1539 1540 1540 1541 1542 1543 1543 1544 1545 1546 1546 1547 1547 1548 1548 1549 1550 1552 1554 1555 1556 1558 1560 1561 1563 1564 1565 1566 1567
1528 1529 1530 1530 1531 1532 1532 1533 1534 1534 1535 1535 1536 1536 1537 1538 1538 1539 1539 1540 1540 1541 1542 1543 1543 1544 1544 1545 1546 1546 1548 1550 1551 1552 1554 1556 1558 1559 1561 1562 1563 1564 1565
1527 1528 1529 1530 1530 1531 1532 1532 1533 1533 1533 1534 1534 1535 1535 1536 1536 1537 1537 1538 1538 1539 1540 1540 1541 1541 1542 1543 1543 1544 1546 1547 1548 1550 1551 1553 1555 1557 1559 1560 1562 1563 1564
1526 1527 1528 1529 1530 1531 1531 1532 1532 1532 1533 1533 1533 1533 1534 1534 1534 1535 1535 1536 1536 1537 1538 1538 1539 1539 1540 1541 1542 1542 1543 1544 1546 1548 1549 1551 1553 1554 1556 1558 1560 1562 1562
1525 1527 1528 1528 1529 1530 1530 1531 1531 1532 1532 1532 1532 1533 1533 1533 1533 1534 1534 1535 1535 1536 1536 1537 1537 1538 1538 1540 1540 1541 1542 1543 1544 1546 1548 1550 1552 1554 1555 1557 1559 1560 1562
1524 1526 1527 1528 1528 1529 1530 1530 1530 1531 1531 1532 1532 1532 1532 1532 1533 1533 1534 1534 1534 1535 1536 1536 1537 1537 1538 1539 1539 1540 1541 1542 1544 1546 1547 1549 1551 1553 1555 1557 1559 1560 1561
1522 1524 1525 1526 1527 1528 1528 1529 1529 1530 1530 1531 1531 1531 1532 1532 1532 1533 1534 1534 1534 1535 1535 1536 1536 1537 1538 1538 1539 1540 1540 1542 1544 1546 1547 1549 1551 1553 1554 1556 1558 1560 1560
1520 1522 1523 1524 1525 1526 1527 1527 1528 1529 1530 1530 1530 1531 1531 1532 1532 1533 1533 1534 1535 1535 1535 1536 1537 1538 1538 1539 1540 1541 1541 1543 1545 1547 1548 1550 1551 1553 1554 1555 1557 1558 1559
1518 1519 1521 1522 1524 1524 1525 1526 1527 1528 1528 1529 1530 1530 1531 1531 1532 1532 1533 1534 1535 1535 1536 1537 1537 1539 1539 1540 1541 1542 1543 1545 1547 1548 1550 1551 1552 1553 1554 1555 1556 1557 1558
1516 1518 1519 1520 1521 1522 1524 1524 1525 1526 1528 1528 1529 1530 1530 1531 1531 1532 1533 1534 1535 1535 1536 1537 1538 1540 1541 1542 1543 1543 1545 1547 1548 1549 1550 1552 1552 1553 1555 1555 1557 1557 1558
1514 1516 1517 1518 1519 1521 1522 1523 1524 1525 1526 1527 1528 1529 1529 1530 1531 1532 1532 1533 1534 1535 1536 1538 1539 1541 1542 1543 1544 1546 1547 1548 1550 1551 1552 1553 1554 1555 1557 1558 1559 1560 1561
1512 1514 1515 1516 1518 1519 1520 1521 1523 1524 1525 1526 1527 1527 1528 1529 1530 1531 1532 1533 1534 1536 1537 1539 1541 1542 1544 1545 1546 1547 1548 1550 1551 1552 1553 1555 1556 1557 1558 1559 1560 1561 1561
1511 1512 1513 1515 1516 1517 1518 1519 1520 1522 1523 1524 1525 1526 1526 1527 1528 1530 1532 1533 1535 1536 1538 1540 1541 1543 1545 1546 1547 1548 1550 1551 1552 1554 1555 1556 1557 1558 1559 1560 1560 1561 1561
1508 1510 1511 1513 1514 1515 1517 1518 1519 1520 1521 1523 1524 1525 1526 1526 1528 1530 1531 1533 1535 1537 1539 1540 1542 1543 1545 1547 1548 1549 1551 1552 1553 1554 1556 1557 1558 1559 1560 1560 1561 1561 1561
1507 1508 1509 1510 1512 1514 1515 1517 1518 1519 1520 1521 1523 1524 1525 1527 1528 1530 1532 1534 1536 1538 1540 1541 1542 1544 1545 1547 1548 1550 1551 1552 1553 1555 1556 1557 1558 1559 1560 1560 1560 1560 1561
1505 1506 1507 1509 1511 1512 1514 1516 1517 1518 1520 1521 1522 1524 1525 1527 1529 1531 1532 1535 1537 1538 1540 1541 1543 1544 1545 1547 1548 1550 1551 1552 1553 1555 1556 1557 1558 1559 1559 1560 1560 1559 1560
1503 1505 1506 1508 1510 1511 1513 1514 1516 1518 1519 1520 1522 1523 1525 1527 1529 1531 1533 1535 1537 1538 1540 1541 1543 1544 1545 1547 1548 1549 1551 1552 1552 1554 1555 1556 1557 1558 1558 1559 1559 1559 1559
1502 1504 1506 1508 1509 1510 1512 1514 1515 1517 1519 1520 1522 1523 1525 1527 1529 1531 1533 1535 1536 1538 1540 1541 1542 1544 1545 1546 1547 1549 1550 1551 1552 1553 1554 1555 1556 1557 1557 1558 1558 1558 1558
1502 1504 1505 1507 1508 1510 1511 1513 1515 1517 1518 1520 1522 1523 1525 1527 1529 1531 1533 1534 1536 1537 1539 1540 1542 1543 1544 1545 1546 1548 1549 1550 1551 1552 1553 1554 1554 1555 1556 1556 1556 1556 1556
1502 1504 1505 1506 1507 1509 1511 1513 1515 1516 1518 1520 1522 1523 1524 1526 1528 1530 1532 1533 1535 1536 1537 1539 1540 1542 1543 1544 1545 1546 1547 1548 1549 1550 1551 1552 1553 1554 1554 1555 1555 1554 1554
1502 1504 1505 1506 1507 1509 1511 1512 1514 1516 1518 1519 1521 1523 1524 1525 1527 1529 1531 1532 1533 1535 1536 1537 1539 1540 1541 1542 1543 1544 1545 1546 1547 1548 1549 1550 1551 1552 1552 1552 1552 1552 1552
1502 1504 1505 1506 1508 1509 1511 1513 1514 1516 1517 1519 1521 1522 1523 1525 1526 1527 1529 1530 1531 1533 1534 1535 1536 1538 1538 1539 1541 1542 1542 1543 1544 1545 1546 1547 1548 1549 1549 1550 1549 1549 1549
1503 1504 1505 1507 1508 1510 1511 1513 1514 1515 1517 1518 1520 1521 1522 1523 1524 1526 1527 1528 1529 1530 1531 1533 1534 1535 1535 1537 1538 1538 1539 1540 1541 1542 1543 1545 1545 1546 1546 1546 1546 1546 1545